Location: Sternwarte auf dem Internationalen Platz Vogelsang IP
(50.5721°N, 6.4398°E)
Time: 21:32:08
(UTC+01:00)

Transit 2A - All Passes

Search period start: 10 December 2025 00:00
Search period end: 20 December 2025 00:00
Orbit: 590 x 955 km, 66.7° (Epoch: 09 December)

Date Brightness Start Highest point End Pass type
(mag) Time Alt. Az. Time Alt. Az. Time Alt. Az.
10 Dec - 05:44:20 10° S 05:49:27 41° ESE 05:55:03 10° NE visible
10 Dec - 07:27:03 10° WSW 07:32:31 49° NW 07:38:29 10° NNE visible
10 Dec - 09:12:40 10° WNW 09:17:07 21° NNW 09:21:47 10° NNE daylight
10 Dec - 10:58:22 10° NW 11:02:32 18° N 11:06:48 10° NE daylight
10 Dec - 12:42:02 10° NNW 12:47:37 32° NNE 12:53:13 10° E daylight
10 Dec - 14:25:06 10° NW 14:31:28 86° WSW 14:37:43 10° SSE daylight
10 Dec - 16:09:22 10° WNW 16:13:47 20° WSW 16:18:08 10° SSW daylight
11 Dec - 05:08:43 10° S 05:13:25 30° ESE 05:18:29 10° NE visible
11 Dec - 06:50:33 10° SW 06:56:06 64° NW 07:02:13 10° NE visible
11 Dec - 08:35:42 10° WNW 08:40:26 24° NNW 08:45:24 10° NNE daylight
11 Dec - 10:21:42 10° NW 10:25:46 18° N 10:29:55 10° NE daylight
11 Dec - 12:05:44 10° NNW 12:11:00 27° NNE 12:16:19 10° E daylight
11 Dec - 13:48:48 10° NW 13:55:09 74° NE 14:01:25 10° SE daylight
11 Dec - 15:32:35 10° NW 15:37:49 28° WSW 15:42:57 10° SSW daylight
12 Dec - 04:33:24 10° SSE 04:37:27 21° ESE 04:41:44 10° ENE visible
12 Dec - 06:14:11 10° SW 06:19:46 84° NW 06:25:55 10° NE visible
12 Dec - 07:58:48 10° W 08:03:47 28° NNW 08:09:04 10° NNE daylight
12 Dec - 09:44:56 10° NW 09:48:59 18° N 09:53:08 10° NE daylight
12 Dec - 11:29:25 10° NNW 11:34:20 24° NNE 11:39:19 10° ENE daylight
12 Dec - 13:12:32 10° NNW 13:18:47 57° NE 13:24:57 10° SE daylight
12 Dec - 14:55:59 10° NW 15:01:46 38° WSW 15:07:25 10° S daylight
13 Dec - 03:58:37 10° SE 04:01:33 15° E 04:04:36 10° ENE visible
13 Dec - 05:37:59 10° SSW 05:43:30 73° ESE 05:49:36 10° NE visible
13 Dec - 07:21:58 10° W 07:27:11 34° NW 07:32:47 10° NNE visible
13 Dec - 09:08:03 10° NW 09:12:12 19° N 09:16:29 10° NE daylight
13 Dec - 10:53:01 10° NNW 10:57:38 21° NNE 11:02:19 10° ENE daylight
13 Dec - 12:36:17 10° NNW 12:42:20 45° NE 12:48:21 10° ESE daylight
13 Dec - 14:19:31 10° NW 14:25:39 52° WSW 14:31:38 10° SSE daylight
13 Dec - 16:06:26 10° W 16:07:24 10° W 16:08:22 10° WSW daylight
14 Dec - 05:01:58 10° SSW 05:07:19 53° ESE 05:13:12 10° NE visible
14 Dec - 06:45:14 10° WSW 06:50:39 42° NW 06:56:31 10° NNE visible
14 Dec - 08:31:06 10° WNW 08:35:27 20° NNW 08:39:57 10° NNE daylight
14 Dec - 10:16:33 10° NNW 10:20:54 19° NNE 10:25:18 10° NE daylight
14 Dec - 12:00:01 10° NNW 12:05:50 37° NE 12:11:36 10° ESE daylight
14 Dec - 13:43:09 10° NW 13:49:28 71° WSW 13:55:38 10° SSE daylight
14 Dec - 15:28:00 10° WNW 15:31:32 16° WSW 15:35:01 10° SW daylight
15 Dec - 04:26:10 10° S 04:31:13 38° ESE 04:36:44 10° NE visible
15 Dec - 06:08:38 10° WSW 06:14:11 53° NW 06:20:15 10° NNE visible
15 Dec - 07:54:08 10° WNW 07:58:43 22° NNW 08:03:30 10° NNE daylight
15 Dec - 09:39:57 10° NW 09:44:07 18° N 09:48:21 10° NE daylight
15 Dec - 11:23:44 10° NNW 11:29:16 30° NNE 11:34:46 10° E daylight
15 Dec - 13:06:49 10° NW 13:13:13 88° ENE 13:19:26 10° SE daylight
15 Dec - 14:50:55 10° WNW 14:55:37 22° WSW 15:00:12 10° SSW daylight
16 Dec - 03:50:36 10° SSE 03:55:12 27° ESE 04:00:08 10° NE visible
16 Dec - 05:32:09 10° SW 05:37:47 70° NW 05:43:57 10° NE visible
16 Dec - 07:17:11 10° W 07:22:01 25° NNW 07:27:08 10° NNE visible
16 Dec - 09:03:15 10° NW 09:07:20 18° N 09:11:30 10° NE daylight
16 Dec - 10:47:26 10° NNW 10:52:38 26° NNE 10:57:50 10° E daylight
16 Dec - 12:30:32 10° NW 12:36:52 69° NE 12:43:05 10° SE daylight
16 Dec - 14:14:11 10° NW 14:19:37 31° WSW 14:24:54 10° S daylight
17 Dec - 03:15:24 10° SSE 03:19:14 19° ESE 03:23:18 10° ENE visible
17 Dec - 04:55:50 10° SW 05:01:28 89° SE 05:07:39 10° NE visible
17 Dec - 06:40:17 10° W 06:45:23 30° NNW 06:50:49 10° NNE visible
17 Dec - 08:26:26 10° NW 08:30:33 18° N 08:34:45 10° NE daylight
17 Dec - 10:11:05 10° NNW 10:15:56 23° NNE 10:20:50 10° ENE daylight
17 Dec - 11:54:15 10° NNW 12:00:28 53° NE 12:06:34 10° ESE daylight
17 Dec - 13:37:39 10° NW 13:43:33 42° WSW 13:49:16 10° S daylight
18 Dec - 02:40:51 10° SE 02:43:21 13° E 02:45:57 10° ENE visible
18 Dec - 04:19:41 10° SSW 04:25:13 67° ESE 04:31:19 10° NE visible
18 Dec - 06:03:28 10° WSW 06:08:49 36° NW 06:14:31 10° NNE visible
18 Dec - 07:49:31 10° NW 07:53:46 19° N 07:58:08 10° NNE visible
18 Dec - 09:34:39 10° NNW 09:39:12 20° NNE 09:43:49 10° ENE daylight
18 Dec - 11:17:59 10° NNW 11:24:00 42° NE 11:29:55 10° ESE daylight
18 Dec - 13:01:12 10° NW 13:07:24 57° WSW 13:13:25 10° SSE daylight
18 Dec - 14:47:09 10° W 14:49:14 12° W 14:51:18 10° WSW daylight
19 Dec - 03:43:43 10° S 03:49:03 48° ESE 03:54:54 10° NE visible
19 Dec - 05:26:46 10° WSW 05:32:17 45° NW 05:38:14 10° NNE visible
19 Dec - 07:12:33 10° WNW 07:17:00 21° NNW 07:21:37 10° NNE visible
19 Dec - 08:58:08 10° NW 09:02:27 19° N 09:06:49 10° NE daylight
19 Dec - 10:41:43 10° NNW 10:47:27 35° NE 10:53:09 10° E daylight
19 Dec - 12:24:50 10° NW 12:31:11 77° WSW 12:37:21 10° SSE daylight
19 Dec - 14:09:26 10° WNW 14:13:21 17° WSW 14:17:12 10° SW daylight
